FW2347 Weather Reports


time (UTC)temp
C
wind
direction
speed
KPH
gust
KPH
rain 1hr
cm
rain 24hr
cm
rain mn
cm
humidity
%
barometer
mb
20260904044545 16 360 0.0 0.0 0.00 0.00 0.00 15 1018.9
20260904043027 16 5 0.0 0.0 0.00 0.00 0.00 18 1019.0
20260904041521 16 5 0.0 0.0 0.00 0.00 0.00 19 1019.0
20260904040004 17 360 0.0 0.0 0.00 0.00 0.00 19 1019.0
20260904034550 17 5 0.0 0.0 0.00 0.00 0.00 20 1019.2
20260904033025 17 5 0.0 0.0 0.00 0.00 0.00 23 1019.4
20260904031503 17 360 0.0 0.0 0.00 0.00 0.00 23 1019.4
20260904030046 17 5 0.0 0.0 0.00 0.00 0.00 22 1019.5
20260904024541 17 5 0.0 0.0 0.00 0.00 0.00 24 1019.5
20260904023019 17 360 0.0 0.0 0.00 0.00 0.00 26 1019.5
20260904021555 17 360 0.0 0.0 0.00 0.00 0.00 30 1019.5
20260904020030 18 360 0.0 0.0 0.00 0.00 0.00 30 1019.6
20260904014522 18 360 0.0 0.0 0.00 0.00 0.00 32 1019.6
20260904013126 18 0.0 0.0 0.00 0.00 0.00 36 1019.7
20260904011542 18 5 0.0 0.0 0.00 0.00 0.00 40 1019.8
20260904010032 18 5 0.0 0.0 0.00 0.00 0.00 43 1019.8
20260904004521 18 5 0.0 0.0 0.00 0.00 0.00 47 1020.0
20260904003101 18 0.0 0.0 0.00 0.00 0.00 47 1020.2
20260904001609 18 5 0.0 0.0 0.00 0.00 0.00 51 1020.3
20260904000046 18 360 0.0 0.0 0.00 0.00 0.00 54 1020.3
20260903234520 18 0.0 0.0 0.00 0.00 0.00 59 1020.3
20260903233102 18 5 0.0 0.0 0.00 0.00 0.00 61 1020.3
20260903231603 19 360 0.0 0.0 0.00 0.00 0.00 63 1020.3
20260903230036 19 360 0.0 0.0 0.00 0.00 0.00 66 1020.3
20260903224523 20 360 0.0 0.0 0.00 0.00 0.00 67 1020.2
20260903223103 20 5 0.0 0.0 0.00 0.00 0.00 69 1020.2
20260903221539 20 360 0.0 0.0 0.00 0.00 0.00 70 1020.1
20260903220014 20 5 0.0 0.0 0.00 0.00 0.00 70 1020.1
20260903214512 21 5 0.0 0.0 0.00 0.00 0.00 72 1020.2
20260903213004 21 360 0.0 0.0 0.00 0.00 0.00 72 1020.3
20260903211558 21 5 0.0 0.0 0.00 0.00 0.00 72 1020.2
20260903210052 22 5 0.0 0.0 0.00 0.00 0.00 72 1020.2
20260903204531 22 360 0.0 0.0 0.00 0.00 0.00 72 1020.2
20260903203022 22 5 0.0 0.0 0.00 0.00 0.00 71 1020.0
20260903201506 23 5 0.0 0.0 0.00 0.00 0.00 71 1020.0
20260903200058 23 5 0.0 0.0 0.00 0.00 0.00 70 1020.0
20260903194540 25 360 0.0 0.0 0.00 0.00 0.00 68 1019.7
20260903193037 25 5 0.0 0.0 0.00 0.00 0.00 67 1019.4
20260903191541 25 360 0.0 0.0 0.00 0.00 0.00 66 1019.1
20260903190036 26 5 0.0 0.0 0.00 0.00 0.00 65 1018.9
20260903184522 26 5 0.0 0.0 0.00 0.00 0.00 64 1018.7
20260903183009 27 5 0.0 0.0 0.00 0.00 0.00 63 1018.5
20260903181600 27 360 0.0 0.0 0.00 0.00 0.00 62 1018.4
20260903180111 28 360 0.0 0.0 0.00 0.00 0.00 60 1018.2
20260903174551 28 0.0 0.0 0.00 0.00 0.00 59 1018.1
20260903173045 29 5 0.0 0.0 0.00 0.00 0.00 57 1018.0
20260903171542 30 360 0.0 0.0 0.00 0.00 0.00 54 1017.9
20260903170016 30 5 0.0 0.0 0.00 0.00 0.00 52 1017.8
20260903164502 31 0.0 0.0 0.00 0.00 0.00 48 1017.8
20260903163133 31 360 0.0 0.0 0.00 0.00 0.00 45 1017.6
20260903161551 32 0.0 0.0 0.00 0.00 0.00 44 1017.6
20260903160036 32 5 0.0 0.0 0.00 0.00 0.00 43 1017.5
20260903154518 32 5 0.0 0.0 0.00 0.00 0.00 41 1017.6
20260903153014 32 5 0.0 0.0 0.00 0.00 0.00 40 1017.7
20260903151509 32 360 0.0 0.0 0.00 0.00 0.00 39 1017.6
20260903150013 33 360 0.0 0.0 0.00 0.00 0.00 38 1017.7
20260903144558 33 360 0.0 0.0 0.00 0.00 0.00 38 1017.7
20260903143046 34 5 0.0 0.0 0.00 0.00 0.00 36 1017.8
20260903141531 34 5 0.0 0.0 0.00 0.00 0.00 36 1017.7
20260903140024 34 0.0 0.0 0.00 0.00 0.00 36 1018.0
20260903134516 34 5 0.0 0.0 0.00 0.00 0.00 35 1017.9
20260903133004 34 5 0.0 0.0 0.00 0.00 0.00 37 1018.2
20260903131601 34 360 0.0 0.0 0.00 0.00 0.00 36 1018.2
20260903130039 33 5 0.0 0.0 0.00 0.00 0.00 37 1018.4
20260903124525 33 360 0.0 0.0 0.00 0.00 0.00 36 1018.6
20260903123013 33 360 0.0 0.0 0.00 0.00 0.00 38 1018.7
20260903121600 32 5 0.0 0.0 0.00 0.00 0.00 39 1018.8
20260903120116 32 0.0 0.0 0.00 0.00 0.00 40 1019.0
20260903114547 31 360 0.0 0.0 0.00 0.00 0.00 41 1019.3
20260903113024 31 360 0.0 0.0 0.00 0.00 0.00 41 1019.3
20260903111520 31 5 0.0 0.0 0.00 0.00 0.00 43 1019.5
20260903110008 31 5 0.0 0.0 0.00 0.00 0.00 42 1019.7
20260903104601 30 5 0.0 0.0 0.00 0.00 0.00 43 1020.1
20260903103050 30 360 0.0 0.0 0.00 0.00 0.00 44 1020.3
20260903101528 30 360 0.0 0.0 0.00 0.00 0.00 46 1020.4
20260903100016 29 5 0.0 0.0 0.00 0.00 0.00 49 1020.5
20260903094602 28 0.0 0.0 0.00 0.00 0.00 50 1020.6
20260903093039 28 5 0.0 0.0 0.00 0.00 0.00 53 1020.7
20260903091517 27 0.0 0.0 0.00 0.00 0.00 56 1020.7
20260903090001 26 5 0.0 0.0 0.00 0.00 0.00 60 1020.7
20260903084545 26 5 0.0 0.0 0.00 0.00 0.00 62 1020.8
20260903083025 25 360 0.0 0.0 0.00 0.00 0.00 64 1020.7
20260903081511 24 5 0.0 0.0 0.00 0.00 0.00 68 1020.7
20260903080007 23 0.0 0.0 0.00 0.00 0.00 70 1020.8
20260903074610 22 360 0.0 0.0 0.00 0.00 0.00 71 1020.9
20260903073023 21 360 0.0 0.0 0.00 0.00 0.00 71 1020.9
20260903071504 20 0.0 0.0 0.00 0.00 0.00 67 1021.0
20260903070044 19 5 0.0 0.0 0.00 0.00 0.00 59 1021.1
20260903064513 18 360 0.0 0.0 0.00 0.00 0.00 43 1021.1
20260903063008 16 360 0.0 0.0 0.00 0.00 0.00 32 1021.0
20260903061502 15 360 0.0 0.0 0.00 0.00 0.00 32 1021.0
20260903060051 15 360 0.0 0.0 0.00 0.00 0.00 31 1021.0
20260903054538 15 5 0.0 0.0 0.00 0.00 0.00 34 1020.9
20260903053014 15 5 0.0 0.0 0.00 0.00 0.00 35 1020.7
20260903051515 15 5 0.0 0.0 0.00 0.00 0.00 35 1020.5
20260903050101 15 5 0.0 0.0 0.00 0.00 0.00 39 1020.4